Time,TemperatureF,DewpointF,PressureIn,WindDirection,WindDirectionDegrees,WindSpeedMPH,WindSpeedGustMPH,Humidity,HourlyPrecipIn,Conditions,Clouds,dailyrainin,SoftwareType,DateUTC
2013-04-03 00:00:00,24.4,13.6,30.33,NNE,19,0.0,0.0,62,0.00,,,-99.99,Misterhouse,2013-04-03 05:00:00,
2013-04-03 00:15:00,23.7,13.3,30.33,NNE,19,0.0,0.0,63,0.00,,,-99.99,Misterhouse,2013-04-03 05:15:00,
2013-04-03 00:30:00,23.0,13.1,30.33,NNE,19,0.0,0.0,65,0.00,,,-99.99,Misterhouse,2013-04-03 05:30:00,
2013-04-03 00:45:00,22.5,13.5,30.33,NNE,19,0.0,0.0,67,0.00,,,-99.99,Misterhouse,2013-04-03 05:45:00,
2013-04-03 01:00:00,22.3,13.6,30.33,NNE,19,0.0,0.0,68,0.00,,,-99.99,Misterhouse,2013-04-03 06:00:00,
2013-04-03 01:15:00,22.1,14.0,30.33,NNE,19,0.0,0.0,70,0.00,,,-99.99,Misterhouse,2013-04-03 06:15:00,
2013-04-03 01:30:00,21.7,14.2,30.34,NNE,19,0.0,0.0,72,0.00,,,-99.99,Misterhouse,2013-04-03 06:30:00,
2013-04-03 01:45:00,21.0,13.6,30.34,NNE,19,0.0,0.0,72,0.00,,,-99.99,Misterhouse,2013-04-03 06:45:00,
2013-04-03 02:00:00,20.8,14.0,30.35,NNE,19,0.0,0.0,74,0.00,,,-99.99,Misterhouse,2013-04-03 07:00:00,
2013-04-03 02:15:00,21.0,14.4,30.35,NNE,19,0.0,0.0,75,0.00,,,-99.99,Misterhouse,2013-04-03 07:15:00,
2013-04-03 02:30:00,20.5,14.2,30.35,NNE,19,0.0,0.0,75,0.00,,,-99.99,Misterhouse,2013-04-03 07:30:00,
2013-04-03 02:45:00,20.3,14.0,30.35,NNE,19,0.0,0.0,76,0.00,,,-99.99,Misterhouse,2013-04-03 07:45:00,
2013-04-03 03:00:00,19.8,13.5,30.35,NNE,19,0.0,0.0,76,0.00,,,-99.99,Misterhouse,2013-04-03 08:00:00,
2013-04-03 03:15:00,19.6,13.6,30.35,NNE,19,0.0,0.0,77,0.00,,,-99.99,Misterhouse,2013-04-03 08:15:00,
2013-04-03 03:30:00,19.6,13.6,30.35,NNE,19,0.0,0.0,77,0.00,,,-99.99,Misterhouse,2013-04-03 08:30:00,
2013-04-03 03:45:00,19.2,13.5,30.35,NNE,19,0.0,0.0,78,0.00,,,-99.99,Misterhouse,2013-04-03 08:45:00,
2013-04-03 04:00:00,19.0,13.5,30.35,NNE,19,0.0,0.0,78,0.00,,,-99.99,Misterhouse,2013-04-03 09:00:00,
2013-04-03 04:15:00,18.9,13.5,30.35,NNE,19,0.0,0.0,79,0.00,,,-99.99,Misterhouse,2013-04-03 09:15:00,
2013-04-03 04:30:00,18.7,13.5,30.36,NNE,19,0.0,0.0,79,0.00,,,-99.99,Misterhouse,2013-04-03 09:30:00,
2013-04-03 04:45:00,18.5,13.5,30.36,NNE,19,0.0,0.0,80,0.00,,,-99.99,Misterhouse,2013-04-03 09:45:00,
2013-04-03 05:00:00,18.9,14.2,30.35,NNE,19,0.0,0.0,81,0.00,,,-99.99,Misterhouse,2013-04-03 10:00:00,
2013-04-03 05:15:00,18.7,14.0,30.36,NNE,19,0.0,0.0,81,0.00,,,-99.99,Misterhouse,2013-04-03 10:15:00,
2013-04-03 05:30:00,18.5,14.0,30.36,NNE,19,0.0,0.0,82,0.00,,,-99.99,Misterhouse,2013-04-03 10:30:00,
2013-04-03 05:45:00,18.1,13.6,30.35,NNE,19,0.0,0.0,82,0.00,,,-99.99,Misterhouse,2013-04-03 10:45:00,
2013-04-03 06:00:00,17.8,13.3,30.36,NNE,19,0.0,0.0,82,0.00,,,-99.99,Misterhouse,2013-04-03 11:00:00,
2013-04-03 06:15:00,18.0,13.8,30.36,North,352,1.0,1.0,83,0.00,,,-99.99,Misterhouse,2013-04-03 11:15:00,
2013-04-03 06:30:00,18.3,14.2,30.36,North,351,0.0,0.0,83,0.00,,,-99.99,Misterhouse,2013-04-03 11:30:00,
2013-04-03 06:45:00,18.0,14.0,30.36,SSE,157,0.0,0.0,83,0.00,,,-99.99,Misterhouse,2013-04-03 11:45:00,
2013-04-03 07:00:00,17.8,13.6,30.37,SSE,157,0.0,0.0,83,0.00,,,-99.99,Misterhouse,2013-04-03 12:00:00,
2013-04-03 07:15:00,18.0,14.0,30.37,SSE,157,0.0,0.0,84,0.00,,,-99.99,Misterhouse,2013-04-03 12:15:00,
2013-04-03 07:30:00,18.5,14.7,30.38,SSE,157,0.0,0.0,85,0.00,,,-99.99,Misterhouse,2013-04-03 12:30:00,
2013-04-03 07:45:00,19.2,15.8,30.39,SSE,157,0.0,0.0,86,0.00,,,-99.99,Misterhouse,2013-04-03 12:45:00,
2013-04-03 08:00:00,21.2,17.8,30.39,SSE,158,2.0,3.0,86,0.00,,,-99.99,Misterhouse,2013-04-03 13:00:00,
2013-04-03 08:15:00,23.2,19.4,30.40,South,182,1.0,1.0,85,0.00,,,-99.99,Misterhouse,2013-04-03 13:15:00,
2013-04-03 08:30:00,25.7,21.2,30.40,ESE,106,0.0,3.0,82,0.00,,,-99.99,Misterhouse,2013-04-03 13:30:00,
2013-04-03 08:45:00,27.1,20.8,30.40,ESE,106,0.0,0.0,76,0.00,,,-99.99,Misterhouse,2013-04-03 13:45:00,
2013-04-03 09:00:00,29.1,19.6,30.40,SW,217,2.0,6.0,66,0.00,,,-99.99,Misterhouse,2013-04-03 14:00:00,
2013-04-03 09:15:00,32.5,18.1,30.40,South,187,3.0,6.0,56,0.00,,,-99.99,Misterhouse,2013-04-03 14:15:00,
2013-04-03 09:30:00,33.1,16.9,30.39,South,187,1.0,7.0,50,0.00,,,-99.99,Misterhouse,2013-04-03 14:30:00,
2013-04-03 09:45:00,34.5,16.0,30.38,South,174,4.0,8.0,45,0.00,,,-99.99,Misterhouse,2013-04-03 14:45:00,
2013-04-03 10:00:00,35.2,15.1,30.37,SSE,156,1.0,8.0,43,0.00,,,-99.99,Misterhouse,2013-04-03 15:00:00,
2013-04-03 10:15:00,36.3,15.3,30.37,SSE,150,6.0,10.0,41,0.00,,,-99.99,Misterhouse,2013-04-03 15:15:00,
2013-04-03 10:30:00,36.9,14.4,30.36,SW,236,10.0,12.0,39,0.00,,,-99.99,Misterhouse,2013-04-03 15:30:00,
2013-04-03 10:45:00,37.4,13.3,30.35,SW,220,9.0,10.0,36,0.00,,,-99.99,Misterhouse,2013-04-03 15:45:00,
2013-04-03 11:00:00,38.1,13.6,30.35,South,188,8.0,10.0,36,0.00,,,-99.99,Misterhouse,2013-04-03 16:00:00,
2013-04-03 11:15:00,38.5,12.2,30.34,South,174,6.0,11.0,32,0.00,,,-99.99,Misterhouse,2013-04-03 16:15:00,
2013-04-03 11:30:00,39.0,12.2,30.34,SE,142,7.0,15.0,33,0.00,,,-99.99,Misterhouse,2013-04-03 16:30:00,
2013-04-03 11:45:00,39.0,12.4,30.34,South,181,11.0,13.0,33,0.00,,,-99.99,Misterhouse,2013-04-03 16:45:00,
2013-04-03 12:00:00,39.4,14.4,30.34,SW,222,11.0,14.0,35,0.00,,,-99.99,Misterhouse,2013-04-03 17:00:00,
2013-04-03 12:15:00,39.4,14.4,30.33,South,171,8.0,13.0,35,0.00,,,-99.99,Misterhouse,2013-04-03 17:15:00,
2013-04-03 12:30:00,39.6,15.4,30.33,SSW,196,9.0,12.0,37,0.00,,,-99.99,Misterhouse,2013-04-03 17:30:00,
2013-04-03 12:45:00,39.4,15.1,30.33,South,180,6.0,16.0,36,0.00,,,-99.99,Misterhouse,2013-04-03 17:45:00,
2013-04-03 13:00:00,39.2,15.1,30.33,SW,215,10.0,14.0,36,0.00,,,-99.99,Misterhouse,2013-04-03 18:00:00,
2013-04-03 13:15:00,39.4,16.5,30.33,South,191,7.0,16.0,39,0.00,,,-99.99,Misterhouse,2013-04-03 18:15:00,
2013-04-03 13:30:00,39.6,18.1,30.33,South,181,14.0,19.0,41,0.00,,,-99.99,Misterhouse,2013-04-03 18:30:00,
2013-04-03 13:45:00,40.1,18.5,30.32,SSW,203,4.0,14.0,41,0.00,,,-99.99,Misterhouse,2013-04-03 18:45:00,
2013-04-03 14:00:00,40.3,16.5,30.31,South,182,8.0,19.0,37,0.00,,,-99.99,Misterhouse,2013-04-03 19:00:00,
2013-04-03 14:15:00,40.1,18.7,30.31,SSW,205,4.0,19.0,41,0.00,,,-99.99,Misterhouse,2013-04-03 19:15:00,
2013-04-03 14:30:00,40.6,18.9,30.31,SSW,212,9.0,17.0,41,0.00,,,-99.99,Misterhouse,2013-04-03 19:30:00,
2013-04-03 14:45:00,40.6,18.7,30.30,South,175,6.0,16.0,40,0.00,,,-99.99,Misterhouse,2013-04-03 19:45:00,
2013-04-03 15:00:00,40.8,18.9,30.30,SSW,213,6.0,19.0,41,0.00,,,-99.99,Misterhouse,2013-04-03 20:00:00,
2013-04-03 15:15:00,41.5,20.5,30.29,SW,217,9.0,15.0,42,0.00,,,-99.99,Misterhouse,2013-04-03 20:15:00,
2013-04-03 15:30:00,41.7,20.3,30.28,SSW,192,2.0,15.0,42,0.00,,,-99.99,Misterhouse,2013-04-03 20:30:00,
2013-04-03 15:45:00,41.9,20.3,30.27,West,268,4.0,14.0,41,0.00,,,-99.99,Misterhouse,2013-04-03 20:45:00,
2013-04-03 16:00:00,42.1,19.8,30.27,SSW,196,7.0,17.0,40,0.00,,,-99.99,Misterhouse,2013-04-03 21:00:00,
2013-04-03 16:15:00,41.9,20.1,30.26,South,181,8.0,18.0,41,0.00,,,-99.99,Misterhouse,2013-04-03 21:15:00,
2013-04-03 16:30:00,42.3,20.1,30.25,SSW,192,10.0,13.0,40,0.00,,,-99.99,Misterhouse,2013-04-03 21:30:00,
2013-04-03 16:45:00,42.1,19.8,30.24,SSW,205,6.0,16.0,40,0.00,,,-99.99,Misterhouse,2013-04-03 21:45:00,
2013-04-03 17:00:00,42.3,20.1,30.24,South,188,7.0,19.0,40,0.00,,,-99.99,Misterhouse,2013-04-03 22:00:00,
2013-04-03 17:15:00,41.9,20.5,30.23,SSE,154,5.0,20.0,42,0.00,,,-99.99,Misterhouse,2013-04-03 22:15:00,
2013-04-03 17:30:00,42.1,20.3,30.23,SSW,195,11.0,17.0,41,0.00,,,-99.99,Misterhouse,2013-04-03 22:30:00,
2013-04-03 17:45:00,41.9,20.8,30.22,SSW,199,8.0,17.0,42,0.00,,,-99.99,Misterhouse,2013-04-03 22:45:00,
2013-04-03 18:00:00,42.1,21.4,30.22,SSE,156,4.0,15.0,43,0.00,,,-99.99,Misterhouse,2013-04-03 23:00:00,
2013-04-03 18:15:00,41.9,21.4,30.22,SSW,209,11.0,14.0,43,0.00,,,-99.99,Misterhouse,2013-04-03 23:15:00,
2013-04-03 18:30:00,41.9,21.7,30.21,SSW,194,6.0,15.0,44,0.00,,,-99.99,Misterhouse,2013-04-03 23:30:00,
2013-04-03 18:45:00,41.9,21.7,30.21,SSE,167,3.0,14.0,44,0.00,,,-99.99,Misterhouse,2013-04-03 23:45:00,
2013-04-03 19:00:00,41.7,21.2,30.21,SE,142,7.0,18.0,43,0.00,,,-99.99,Misterhouse,2013-04-04 00:00:00,
2013-04-03 19:15:00,41.5,21.4,30.20,South,184,6.0,14.0,45,0.00,,,-99.99,Misterhouse,2013-04-04 00:15:00,
2013-04-03 19:30:00,40.6,21.7,30.20,SSW,213,10.0,11.0,46,0.00,,,-99.99,Misterhouse,2013-04-04 00:30:00,
2013-04-03 19:45:00,39.9,21.9,30.20,SSW,206,6.0,10.0,48,0.00,,,-99.99,Misterhouse,2013-04-04 00:45:00,
2013-04-03 20:00:00,39.7,22.5,30.20,SSW,195,5.0,9.0,49,0.00,,,-99.99,Misterhouse,2013-04-04 01:00:00,
2013-04-03 20:15:00,38.5,22.3,30.18,South,174,7.0,10.0,51,0.00,,,-99.99,Misterhouse,2013-04-04 01:15:00,
2013-04-03 20:30:00,38.3,22.6,30.19,SSE,168,3.0,12.0,52,0.00,,,-99.99,Misterhouse,2013-04-04 01:30:00,
2013-04-03 20:45:00,38.1,22.6,30.19,SW,226,6.0,9.0,53,0.00,,,-99.99,Misterhouse,2013-04-04 01:45:00,
2013-04-03 21:00:00,37.6,22.8,30.19,SSW,209,3.0,12.0,54,0.00,,,-99.99,Misterhouse,2013-04-04 02:00:00,
2013-04-03 21:15:00,37.2,22.6,30.19,South,191,5.0,9.0,55,0.00,,,-99.99,Misterhouse,2013-04-04 02:15:00,
2013-04-03 21:30:00,37.2,22.6,30.19,SSE,161,9.0,14.0,55,0.00,,,-99.99,Misterhouse,2013-04-04 02:30:00,
2013-04-03 21:45:00,36.7,22.1,30.18,SSW,196,4.0,10.0,54,0.00,,,-99.99,Misterhouse,2013-04-04 02:45:00,
2013-04-03 22:00:00,37.0,21.7,30.18,SW,216,5.0,14.0,53,0.00,,,-99.99,Misterhouse,2013-04-04 03:00:00,
2013-04-03 22:15:00,37.0,21.6,30.17,SW,216,4.0,15.0,52,0.00,,,-99.99,Misterhouse,2013-04-04 03:15:00,
2013-04-03 22:30:00,37.2,21.4,30.16,SSW,205,9.0,14.0,52,0.00,,,-99.99,Misterhouse,2013-04-04 03:30:00,
2013-04-03 22:45:00,37.0,20.8,30.15,SSW,205,6.0,19.0,51,0.00,,,-99.99,Misterhouse,2013-04-04 03:45:00,
2013-04-03 23:00:00,37.4,20.7,30.14,SSW,198,9.0,18.0,50,0.00,,,-99.99,Misterhouse,2013-04-04 04:00:00,
2013-04-03 23:15:00,37.4,20.3,30.14,SW,220,8.0,18.0,49,0.00,,,-99.99,Misterhouse,2013-04-04 04:15:00,
2013-04-03 23:30:00,37.6,19.8,30.13,SW,226,8.0,17.0,48,0.00,,,-99.99,Misterhouse,2013-04-04 04:30:00,
2013-04-03 23:45:00,37.6,19.4,30.13,SW,216,7.0,17.0,47,0.00,,,-99.99,Misterhouse,2013-04-04 04:45:00,